[[{"header":{"parameterUnit":"m.s-1","parameterCategory":2,"la1":30.2991,"la2":30.254,"lo1":-89.0895,"lo2":-89.0444,"dy":0.0017,"dx":0.0017,"nx":28,"ny":28,"refTime":"2024-10-13T09:00:00:Z","depth":"0","parameterNumber":2,"parameterNumberName":"U-component_of_CURRENTS"},"data":[0,0,0,0,0,0,0,0,0,0,0,0,0,0,0,0,0,0,0,0,0,0,0,0,0,0,0,0,0,0,0,0,0,0,0,0,0,0,0,0,0,0,0,0,0,0,0,0,0,0,0,0,0,0,0,0,0,0,0.2777,0.2777,0,0.2767,0.2767,0.2767,0.2806,0.2807,0.2808,0.2809,0.2838,0.2838,0.2837,0,0,0,0,0,0,0,0,0,0,0,0,0,0.2824,0.2823,0.2777,0.2777,0.2777,0.2767,0.2767,0.2767,0.2805,0.2807,0.2808,0.281,0.2838,0.2838,0.2837,0,0,0,0,0,0,0,0,0,0,0,0,0,0.2808,0.2823,0.2777,0.2795,0.2797,0.2767,0.2767,0.2767,0.2805,0.2807,0.2809,0.281,0.2838,0.2838,0.2837,0.2799,0,0,0.2836,0.2836,0,0,0,0,0,0,0,0,0.2809,0.2806,0.2792,0.2794,0.2795,0.279,0.2794,0.278,0.2805,0.2802,0.2809,0.2811,0.2824,0.2825,0.2818,0.2801,0.2802,0.2836,0.2835,0.2835,0.2835,0,0,0,0,0,0,0,0.281,0.2807,0.2773,0.2792,0.2794,0.2802,0.2802,0.2792,0.2804,0.2802,0.2805,0.2803,0.2826,0.2819,0.2819,0.2803,0.2836,0.2835,0.2835,0.2835,0.2852,0.2853,0,0,0,0,0,0,0.2809,0.2807,0.2773,0.2773,0.2807,0.28,0.2799,0.279,0.2803,0.2807,0.2802,0.2805,0.2819,0.282,0.2821,0.2826,0.2835,0.2835,0.2835,0.2852,0.2853,0.2853,0,0,0,0,0,0,0.281,0.2806,0.2774,0.2791,0.2787,0.2797,0.2786,0.2788,0.2791,0.2803,0.2807,0.2804,0.282,0.2821,0.2827,0.2826,0.2835,0.2834,0.2851,0.2852,0.2853,0.2804,0,0,0,0,0,0,0.2811,0.2806,0.2797,0.279,0.2786,0.276,0.2784,0.2787,0.2787,0.2792,0.2805,0.2809,0.2822,0.2828,0.2827,0.2825,0.2834,0.285,0.2851,0.2853,0.2805,0.2804,0.2803,0,0,0,0,0,0.2813,0.2797,0.2796,0.2792,0.2774,0.2759,0.2757,0.2771,0.2786,0.2781,0.2799,0.2809,0.2837,0.2827,0.2826,0.2824,0.2849,0.2851,0.2853,0.2806,0.2804,0.2803,0,0,0,0,0,0,0.2802,0.2799,0.2799,0.2779,0.277,0.2766,0.2759,0.2767,0.2774,0.2781,0.2801,0.2806,0.2817,0.2828,0.2816,0.284,0.2851,0.2852,0.2816,0.2815,0.2813,0.2791,0.2833,0,0,0,0,0,0.2795,0.2789,0.278,0.2762,0.2757,0.2756,0.2751,0.2756,0.2762,0.2767,0.2777,0.2798,0.2819,0.2823,0.2838,0.283,0.2849,0.2838,0.2836,0.2835,0.282,0.2871,0.2873,0.2859,0.2859,0.2859,0,0,0.2782,0.2782,0.2775,0.2761,0.2754,0.2736,0.2758,0.2745,0.2737,0.2766,0.2761,0.2788,0.2819,0.2825,0.2831,0.2833,0.2846,0.2837,0.2835,0.2821,0.2873,0.2874,0.2875,0.286,0.286,0.286,0,0,0.2758,0.2754,0.2742,0.2734,0.2725,0.2721,0.2718,0.2711,0.2717,0.2709,0.2745,0.2766,0.278,0.2803,0.2819,0.2816,0.2842,0.2835,0.2799,0.2849,0.285,0.2851,0.2857,0.2859,0.2829,0.2829,0.2829,0,0.2743,0.2725,0.2733,0.2719,0.2706,0.2714,0.2688,0.2689,0.2688,0.2686,0.2707,0.2743,0.2768,0.2784,0.2794,0.2809,0.2834,0.2796,0.2845,0.2847,0.2849,0.2855,0.2858,0.2827,0.2827,0.2828,0.2828,0,0.2707,0.2696,0.2685,0.2671,0.2658,0.2637,0.2635,0.2631,0.2639,0.2641,0.2656,0.2692,0.2714,0.2738,0.2762,0.2791,0.2802,0.284,0.2841,0.2847,0.2853,0.2857,0.2824,0.2825,0.2825,0.2826,0,0,0.2662,0.2661,0.2655,0.264,0.263,0.2606,0.2599,0.2583,0.257,0.2588,0.258,0.2627,0.2647,0.2668,0.2708,0.275,0.2784,0.2797,0.2801,0.2787,0.2871,0.2731,0.2722,0.2842,0.2842,0.2843,0.2862,0,0.2627,0.2595,0.2602,0.2558,0.2537,0.2544,0.2529,0.252,0.2526,0.2522,0.2565,0.2575,0.2622,0.2635,0.2684,0.2769,0.2796,0.2773,0.288,0.2882,0.2746,0.2723,0.2535,0.2524,0.2866,0.2866,0.2867,0,0.2581,0.257,0.2526,0.2503,0.249,0.2467,0.2436,0.2426,0.2436,0.2444,0.2465,0.2498,0.2547,0.2597,0.2712,0.2701,0.2773,0.2835,0.2839,0.2724,0.2749,0.258,0.2518,0.2414,0.2873,0.2872,0.2872,0,0.2533,0.2509,0.2471,0.2461,0.2439,0.242,0.2407,0.2402,0.2389,0.2398,0.2392,0.2449,0.2478,0.2587,0.2695,0.272,0.2819,0.2873,0.2802,0.2793,0.2657,0.2632,0.2489,0.2946,0.2946,0.2945,0.2945,0,0.2488,0.2454,0.2448,0.2423,0.2376,0.2375,0.2328,0.2328,0.2327,0.2302,0.235,0.2346,0.2487,0.2553,0.2668,0.2717,0.2797,0.2769,0.2784,0.2631,0.2605,0.2529,0.2496,0.2946,0.2946,0.2946,0.2946,0,0.2437,0.2434,0.2391,0.2365,0.2354,0.2318,0.2287,0.2258,0.2264,0.2239,0.224,0.2283,0.235,0.246,0.2618,0.265,0.2628,0.274,0.2516,0.2501,0.23,0.2271,0.2111,0.2083,0.2645,0.2642,0.2639,0,0.2403,0.2381,0.2346,0.232,0.2307,0.2265,0.2236,0.223,0.2204,0.2196,0.218,0.2215,0.2222,0.2341,0.2397,0.2491,0.2494,0.2366,0.2366,0.2219,0.2203,0.2174,0.2164,0.2176,0.217,0.2165,0.2161,0,0.2344,0.2338,0.2311,0.2266,0.2228,0.2183,0.2148,0.2118,0.2105,0.2079,0.2053,0.2056,0.2094,0.2055,0.2122,0.2187,0.2169,0.2256,0.2184,0.1857,0.1739,0.1741,0.222,0.2114,0.2118,0.2122,0.2124,0.2126,0.2301,0.2275,0.2246,0.2203,0.2158,0.2099,0.2041,0.2002,0.1945,0.1867,0.1926,0.1853,0.178,0.182,0.1861,0.1712,0.1848,0.167,0.166,0.1657,0.1559,0.1888,0.1749,0.1752,0.1754,0.1756,0.1758,0,0.2241,0.2221,0.218,0.2112,0.2048,0.2048,0.197,0.1892,0.1793,0.1724,0.1679,0.1502,0.1399,0.1364,0.1197,0.1121,0.1171,0.11,0.1033,0.1076,0.1421,0.1327,0.099,0.099,0.099,0.0991,0.0991,0.0991,0.2199,0.2154,0.214,0.2027,0.1977,0.1859,0.1806,0.1688,0.1601,0.1382,0.1226,0.1176,0.1026,0.0776,0.0614,0.0631,0.0634,0.0539,0.0673,0.0897,0.0952,0.1003,0.0907,0.0487,0.0487,0.0283,0.028,0.0278]},{"header":{"parameterUnit":"m.s-1","parameterCategory":2,"la1":30.2991,"la2":30.254,"lo1":-89.0895,"lo2":-89.0444,"dy":0.0017,"dx":0.0017,"nx":28,"ny":28,"refTime":"2024-10-13T09:00:00:Z","depth":"0","parameterNumber":3,"parameterNumberName":"V-component_of_CURRENTS"},"data":[0,0,0,0,0,0,0,0,0,0,0,0,0,0,0,0,0,0,0,0,0,0,0,0,0,0,0,0,0,0,0,0,0,0,0,0,0,0,0,0,0,0,0,0,0,0,0,0,0,0,0,0,0,0,0,0,0,0,0.0395,0.0395,0,0.0423,0.0424,0.0424,0.0444,0.0444,0.0444,0.0444,0.049,0.0491,0.0492,0,0,0,0,0,0,0,0,0,0,0,0,0,0.0351,0.0351,0.0395,0.0395,0.0396,0.0423,0.0424,0.0424,0.0444,0.0444,0.0444,0.0444,0.0489,0.049,0.0492,0,0,0,0,0,0,0,0,0,0,0,0,0,0.0373,0.0352,0.0395,0.0409,0.0411,0.0423,0.0424,0.0424,0.0444,0.0444,0.0444,0.0445,0.0489,0.049,0.0492,0.0496,0,0,0.0496,0.0497,0,0,0,0,0,0,0,0,0.0372,0.0375,0.0407,0.0408,0.041,0.0431,0.0425,0.0449,0.0444,0.0431,0.0444,0.0445,0.0471,0.0474,0.0478,0.0498,0.05,0.0497,0.0498,0.0498,0.0499,0,0,0,0,0,0,0,0.037,0.0374,0.0406,0.0407,0.0409,0.0412,0.0415,0.0429,0.0449,0.0432,0.0434,0.0437,0.0472,0.0477,0.048,0.05,0.0497,0.0498,0.0499,0.05,0.0601,0.0603,0,0,0,0,0,0,0.0368,0.0372,0.0405,0.0407,0.0392,0.0412,0.0416,0.0423,0.0449,0.0453,0.0437,0.0438,0.0474,0.0478,0.0481,0.0542,0.0498,0.05,0.0501,0.0599,0.0602,0.0603,0,0,0,0,0,0,0.0367,0.0371,0.0404,0.039,0.0395,0.0413,0.0421,0.0424,0.043,0.0452,0.0457,0.0441,0.0474,0.0479,0.051,0.0542,0.05,0.0502,0.0597,0.06,0.0603,0.0629,0,0,0,0,0,0,0.0365,0.037,0.0373,0.039,0.0395,0.0415,0.0421,0.0424,0.0432,0.0434,0.0457,0.0461,0.0475,0.0507,0.0511,0.0544,0.0503,0.0595,0.0599,0.0602,0.0626,0.0633,0.0638,0,0,0,0,0,0.0364,0.0362,0.0373,0.0377,0.0399,0.0415,0.0418,0.0432,0.0432,0.0438,0.0461,0.0461,0.0532,0.0509,0.0514,0.0547,0.0593,0.0598,0.0601,0.0624,0.0631,0.0638,0,0,0,0,0,0,0.0335,0.0365,0.0377,0.0383,0.0401,0.0419,0.0419,0.043,0.0451,0.0451,0.0472,0.0479,0.0525,0.053,0.0505,0.059,0.0567,0.0572,0.0583,0.059,0.0596,0.0584,0.0504,0,0,0,0,0,0.0333,0.0347,0.0372,0.0377,0.0383,0.0401,0.0408,0.042,0.044,0.0448,0.0472,0.0503,0.0544,0.0559,0.059,0.0622,0.0619,0.0652,0.0658,0.0663,0.0659,0.069,0.0697,0.0617,0.0617,0.0616,0,0,0.0321,0.0341,0.0347,0.0373,0.0384,0.0404,0.0406,0.0415,0.0444,0.045,0.0492,0.052,0.0558,0.0608,0.0628,0.0615,0.0684,0.0668,0.0672,0.0665,0.0694,0.0702,0.0709,0.0619,0.0619,0.0618,0,0,0.0309,0.0323,0.0334,0.0353,0.0377,0.0396,0.04,0.0425,0.0446,0.0487,0.0513,0.0556,0.0605,0.0646,0.0672,0.0726,0.0715,0.0743,0.076,0.079,0.0796,0.0802,0.0796,0.0801,0.0744,0.0744,0.0744,0,0.0292,0.0318,0.0337,0.0356,0.0374,0.0395,0.0412,0.0441,0.0479,0.0504,0.0505,0.0601,0.0628,0.0701,0.0728,0.0739,0.0739,0.0727,0.0796,0.0801,0.0806,0.0799,0.0804,0.0746,0.0745,0.0745,0.0745,0,0.0299,0.032,0.0323,0.0367,0.0387,0.0401,0.0445,0.0475,0.0503,0.0537,0.0607,0.0649,0.0703,0.0732,0.0747,0.081,0.0792,0.0798,0.077,0.0815,0.0806,0.081,0.0748,0.0748,0.0747,0.0747,0,0,0.0254,0.0317,0.0317,0.0347,0.0394,0.0412,0.0464,0.0518,0.0556,0.0604,0.0659,0.0736,0.0749,0.0779,0.0809,0.084,0.0877,0.0833,0.0834,0.0814,0.0918,0.0886,0.0887,0.0894,0.0895,0.0896,0.0892,0,0.0253,0.0292,0.0328,0.0371,0.0396,0.0442,0.0491,0.0545,0.0594,0.0653,0.0707,0.0766,0.0772,0.0801,0.0835,0.0881,0.0892,0.0875,0.0889,0.0888,0.0844,0.0894,0.0909,0.0906,0.0896,0.0897,0.0897,0,0.0246,0.0281,0.0317,0.0391,0.0404,0.0436,0.0513,0.0562,0.0648,0.0685,0.0743,0.0783,0.0852,0.0842,0.0912,0.0901,0.0903,0.0922,0.0922,0.0885,0.0866,0.0864,0.0914,0.0904,0.0904,0.0903,0.0903,0,0.0211,0.0273,0.0304,0.0327,0.041,0.0439,0.0484,0.0565,0.0616,0.07,0.0739,0.0815,0.0862,0.0892,0.0929,0.0924,0.0988,0.0985,0.0946,0.0942,0.0954,0.0949,0.0986,0.1007,0.1007,0.1007,0.1007,0,0.0201,0.0225,0.029,0.0309,0.0357,0.0417,0.0475,0.0533,0.0618,0.0683,0.0744,0.0808,0.0879,0.0927,0.0939,0.096,0.099,0.0952,0.095,0.0963,0.0959,0.0948,0.095,0.1006,0.1006,0.1006,0.1006,0,0.016,0.02,0.0243,0.0319,0.0342,0.0373,0.0463,0.0512,0.0587,0.0673,0.07,0.0814,0.0886,0.0927,0.0988,0.0973,0.1003,0.0978,0.0969,0.0966,0.0915,0.0918,0.0959,0.1,0.0941,0.094,0.0939,0,0.0147,0.0165,0.0233,0.0259,0.0292,0.0348,0.0393,0.0483,0.054,0.068,0.0723,0.082,0.0907,0.0972,0.0983,0.0988,0.0992,0.0957,0.0952,0.0918,0.0921,0.0933,0.0967,0.0974,0.0974,0.0974,0.0973,0,0.0134,0.015,0.0189,0.0233,0.0276,0.0335,0.0405,0.0448,0.0565,0.0646,0.0772,0.0856,0.0938,0.099,0.0981,0.098,0.0981,0.095,0.0943,0.0972,0.0964,0.1,0.0941,0.0972,0.0972,0.0972,0.0972,0.0972,0.0121,0.014,0.0185,0.0228,0.0273,0.0334,0.0388,0.0474,0.0576,0.0724,0.079,0.092,0.0962,0.0989,0.0986,0.0949,0.0975,0.0922,0.0932,0.0949,0.0987,0.0898,0.0908,0.0908,0.0908,0.0908,0.0907,0,0.0122,0.0149,0.0185,0.0246,0.0287,0.0317,0.0413,0.0482,0.0603,0.0732,0.0852,0.0935,0.0977,0.0986,0.0947,0.0931,0.0972,0.0916,0.0956,0.0997,0.0941,0.0939,0.0924,0.0924,0.0924,0.0924,0.0924,0.0924,0.0129,0.0161,0.0184,0.0252,0.0293,0.0369,0.0428,0.0532,0.0638,0.0783,0.0867,0.0936,0.0939,0.0921,0.0916,0.0923,0.0972,0.095,0.0979,0.0935,0.0937,0.0939,0.0938,0.0922,0.0922,0.1062,0.1063,0.1064]}],[{"header":{"parameterUnit":"m.s-1","parameterCategory":2,"la1":30.2991,"la2":30.254,"lo1":-89.0895,"lo2":-89.0444,"dy":0.0017,"dx":0.0017,"nx":28,"ny":28,"refTime":"2024-10-13T09:00:00:Z","depth":"2","parameterNumber":2,"parameterNumberName":"U-component_of_CURRENTS"},"data":[0,0,0,0,0,0,0,0,0,0,0,0,0,0,0,0,0,0,0,0,0,0,0,0,0,0,0,0,0,0,0,0,0,0,0,0,0,0,0,0,0,0,0,0,0,0,0,0,0,0,0,0,0,0,0,0,0,0,0.0662,0.0662,0,0.0646,0.0645,0.0645,0.0697,0.0698,0.07,0.0701,0.0826,0.0827,0.0829,0,0,0,0,0,0,0,0,0,0,0,0,0,0.075,0.0748,0.0662,0.0662,0.0661,0.0646,0.0645,0.0645,0.0697,0.0698,0.07,0.0702,0.0825,0.0827,0.0829,0,0,0,0,0,0,0,0,0,0,0,0,0,0.0721,0.0747,0.0662,0.0685,0.0687,0.0646,0.0645,0.0645,0.0696,0.0699,0.0701,0.0703,0.0824,0.0827,0.083,0.08,0,0,0.0838,0.084,0,0,0,0,0,0,0,0,0.0722,0.0717,0.0682,0.0683,0.0685,0.0676,0.0722,0.0704,0.0696,0.0693,0.0701,0.0704,0.0787,0.0793,0.0783,0.0806,0.0812,0.0839,0.084,0.0841,0.0842,0,0,0,0,0,0,0,0.0724,0.0718,0.0656,0.0681,0.0683,0.0701,0.0699,0.0718,0.073,0.0693,0.0697,0.0694,0.0789,0.078,0.0786,0.0813,0.0838,0.0841,0.0843,0.0844,0.0965,0.0966,0,0,0,0,0,0,0.0722,0.072,0.0656,0.0655,0.071,0.0697,0.0695,0.0676,0.0726,0.0735,0.0692,0.0696,0.0774,0.0783,0.0791,0.0856,0.0841,0.0844,0.0846,0.0963,0.0965,0.0967,0,0,0,0,0,0,0.0723,0.0716,0.0657,0.0688,0.0682,0.0693,0.0672,0.0675,0.0704,0.0724,0.0736,0.0722,0.0776,0.0787,0.0821,0.0858,0.0845,0.0848,0.0962,0.0964,0.0966,0.0924,0,0,0,0,0,0,0.0726,0.0716,0.0716,0.0687,0.068,0.0649,0.0669,0.0673,0.0696,0.0703,0.0753,0.0764,0.0779,0.0817,0.0824,0.0862,0.085,0.096,0.0963,0.0965,0.0924,0.0925,0.0926,0,0,0,0,0,0.0729,0.0708,0.0715,0.0709,0.0674,0.0649,0.0647,0.0663,0.0695,0.0701,0.073,0.0765,0.0843,0.0818,0.0827,0.0867,0.0958,0.0962,0.0965,0.0923,0.0925,0.0926,0,0,0,0,0,0,0.0757,0.071,0.0718,0.0689,0.0682,0.0658,0.0664,0.0679,0.0703,0.0729,0.0756,0.0768,0.0821,0.0847,0.082,0.0916,0.0918,0.0923,0.0884,0.0885,0.0886,0.088,0.0852,0,0,0,0,0,0.0758,0.0725,0.0702,0.0683,0.0682,0.0682,0.0683,0.0696,0.0704,0.0719,0.0752,0.08,0.0833,0.0861,0.0894,0.0926,0.0949,0.097,0.0971,0.0971,0.0975,0.1012,0.1015,0.0978,0.0978,0.0978,0,0,0.0761,0.0735,0.0717,0.0687,0.0685,0.0671,0.0689,0.0696,0.0699,0.0729,0.0762,0.0802,0.0843,0.088,0.091,0.0911,0.0996,0.0975,0.0975,0.0979,0.1016,0.1019,0.1022,0.0981,0.098,0.098,0,0,0.0742,0.0734,0.0704,0.0695,0.0693,0.0686,0.0697,0.0698,0.0722,0.0741,0.0777,0.0823,0.0877,0.0901,0.0922,0.0951,0.0999,0.0997,0.0994,0.1029,0.1032,0.1034,0.1067,0.1073,0.0998,0.0998,0.0998,0,0.0759,0.0712,0.0698,0.0677,0.0671,0.0696,0.0682,0.0694,0.0713,0.0733,0.076,0.0844,0.088,0.0917,0.0935,0.0952,0.0986,0.0976,0.1027,0.103,0.1033,0.1066,0.1073,0.0997,0.0997,0.0997,0.0997,0,0.0711,0.0694,0.0681,0.0653,0.0647,0.0642,0.065,0.0676,0.0717,0.0733,0.0797,0.0835,0.0889,0.0919,0.0934,0.0991,0.1012,0.1017,0.1012,0.1034,0.1068,0.1076,0.0994,0.0995,0.0996,0.0996,0,0,0.0695,0.0654,0.0655,0.0647,0.0639,0.0627,0.0642,0.0653,0.068,0.0729,0.0765,0.0826,0.0875,0.0904,0.0946,0.0981,0.1029,0.1018,0.102,0.103,0.1119,0.0983,0.0979,0.1049,0.105,0.1051,0.1132,0,0.0673,0.0629,0.0612,0.0591,0.0575,0.0596,0.0601,0.0626,0.0667,0.0712,0.0776,0.0831,0.0862,0.0908,0.0945,0.1021,0.105,0.1008,0.1116,0.1119,0.0977,0.0982,0.0888,0.0939,0.114,0.1141,0.1142,0,0.0641,0.0608,0.0584,0.0564,0.0562,0.0564,0.059,0.0597,0.0659,0.0699,0.0763,0.0821,0.0898,0.0918,0.1033,0.1013,0.1067,0.111,0.1114,0.1005,0.0996,0.0954,0.0945,0.1156,0.1154,0.1153,0.1153,0,0.0641,0.0597,0.058,0.0571,0.0551,0.0567,0.0573,0.0613,0.0629,0.0709,0.0744,0.0833,0.0901,0.0977,0.1077,0.1071,0.1195,0.119,0.1107,0.11,0.1047,0.103,0.1251,0.1251,0.125,0.125,0.125,0,0.0617,0.0608,0.0588,0.058,0.0567,0.0568,0.0588,0.0609,0.0655,0.0682,0.0753,0.0801,0.0925,0.1008,0.1083,0.1118,0.12,0.1103,0.1105,0.1028,0.101,0.1222,0.1218,0.1253,0.1253,0.1252,0.1251,0,0.0618,0.0611,0.059,0.0573,0.0573,0.0573,0.0583,0.0593,0.0643,0.0686,0.0716,0.0807,0.091,0.1005,0.1138,0.1108,0.1166,0.1157,0.1051,0.1034,0.1047,0.1041,0.1057,0.1053,0.1049,0.1046,0.1043,0,0.0608,0.0596,0.0586,0.0582,0.0582,0.0581,0.058,0.0599,0.0606,0.0687,0.0703,0.0811,0.0856,0.0963,0.0972,0.1024,0.1125,0.0931,0.0864,0.1024,0.1025,0.1024,0.1022,0.0806,0.0802,0.0798,0.0795,0,0.0565,0.0587,0.0567,0.0561,0.0563,0.0548,0.0555,0.0555,0.0588,0.0631,0.0703,0.0745,0.0789,0.0781,0.079,0.0808,0.0903,0.0851,0.1088,0.083,0.0782,0.0785,0.0793,0.0764,0.0767,0.077,0.0771,0.0773,0.0549,0.0536,0.0533,0.0529,0.0526,0.0532,0.0557,0.0568,0.0592,0.0671,0.0676,0.0701,0.0637,0.0586,0.0604,0.0618,0.0655,0.0637,0.0651,0.0669,0.0585,0.0529,0.045,0.0451,0.0452,0.0453,0.0454,0,0.0532,0.0534,0.0498,0.049,0.0473,0.0533,0.0547,0.056,0.0629,0.0636,0.0699,0.0526,0.0462,0.0471,0.0407,0.0345,0.0388,0.0367,0.0444,0.0471,0.0496,0.0409,0.0226,0.0226,0.0226,0.0226,0,0,0.0523,0.0502,0.0479,0.044,0.048,0.0543,0.0608,0.0636,0.0622,0.0603,0.0586,0.0528,0.0409,0.0317,0.0277,0.0273,0.0393,0.026,0.043,0.0548,0.0575,0.0617,0.0505,0,0,0,0,0]},{"header":{"parameterUnit":"m.s-1","parameterCategory":2,"la1":30.2991,"la2":30.254,"lo1":-89.0895,"lo2":-89.0444,"dy":0.0017,"dx":0.0017,"nx":28,"ny":28,"refTime":"2024-10-13T09:00:00:Z","depth":"2","parameterNumber":3,"parameterNumberName":"V-component_of_CURRENTS"},"data":[0,0,0,0,0,0,0,0,0,0,0,0,0,0,0,0,0,0,0,0,0,0,0,0,0,0,0,0,0,0,0,0,0,0,0,0,0,0,0,0,0,0,0,0,0,0,0,0,0,0,0,0,0,0,0,0,0,0,-0.0308,-0.0308,0,-0.0302,-0.0302,-0.0301,-0.0317,-0.0317,-0.0318,-0.0318,-0.0345,-0.0345,-0.0345,0,0,0,0,0,0,0,0,0,0,0,0,0,-0.0323,-0.0322,-0.0308,-0.0308,-0.0308,-0.0302,-0.0302,-0.0301,-0.0317,-0.0317,-0.0318,-0.0318,-0.0345,-0.0345,-0.0345,0,0,0,0,0,0,0,0,0,0,0,0,0,-0.0317,-0.0322,-0.0308,-0.0314,-0.0315,-0.0302,-0.0302,-0.0301,-0.0316,-0.0317,-0.0318,-0.0318,-0.0345,-0.0345,-0.0345,-0.0335,0,0,-0.0347,-0.0347,0,0,0,0,0,0,0,0,-0.0317,-0.0316,-0.0314,-0.0314,-0.0314,-0.031,-0.0316,-0.0314,-0.0316,-0.0316,-0.0318,-0.0319,-0.0336,-0.0337,-0.0334,-0.0336,-0.0337,-0.0347,-0.0347,-0.0347,-0.0347,0,0,0,0,0,0,0,-0.0317,-0.0316,-0.0306,-0.0313,-0.0314,-0.0314,-0.0314,-0.0316,-0.0323,-0.0316,-0.0317,-0.0316,-0.0336,-0.0334,-0.0335,-0.0338,-0.0347,-0.0347,-0.0347,-0.0348,-0.0327,-0.0326,0,0,0,0,0,0,-0.0317,-0.0317,-0.0306,-0.0306,-0.0317,-0.0313,-0.0313,-0.0311,-0.0322,-0.0324,-0.0315,-0.0316,-0.0333,-0.0334,-0.0336,-0.0316,-0.0347,-0.0348,-0.0348,-0.0327,-0.0326,-0.0326,0,0,0,0,0,0,-0.0317,-0.0316,-0.0306,-0.0311,-0.031,-0.0312,-0.031,-0.0311,-0.0318,-0.0321,-0.0324,-0.0322,-0.0333,-0.0335,-0.0335,-0.0318,-0.0348,-0.0348,-0.0328,-0.0327,-0.0326,-0.0282,0,0,0,0,0,0,-0.0318,-0.0316,-0.0321,-0.0311,-0.0309,-0.03,-0.0309,-0.031,-0.0315,-0.0317,-0.0328,-0.0331,-0.0334,-0.0335,-0.0336,-0.0319,-0.0349,-0.0329,-0.0328,-0.0326,-0.0284,-0.0279,-0.0275,0,0,0,0,0,-0.0318,-0.032,-0.0321,-0.032,-0.0314,-0.03,-0.0299,-0.0303,-0.0315,-0.0314,-0.0318,-0.0331,-0.0326,-0.0334,-0.0336,-0.0319,-0.033,-0.0328,-0.0327,-0.0286,-0.028,-0.0275,0,0,0,0,0,0,-0.0332,-0.0321,-0.0323,-0.0322,-0.0313,-0.0303,-0.0304,-0.0307,-0.0309,-0.0315,-0.0323,-0.0325,-0.0316,-0.0325,-0.0335,-0.0308,-0.0329,-0.0327,-0.0298,-0.0292,-0.0287,-0.0275,-0.0349,0,0,0,0,0,-0.0336,-0.0334,-0.0321,-0.0322,-0.0317,-0.0312,-0.0311,-0.0311,-0.0308,-0.031,-0.0315,-0.0317,-0.0307,-0.0308,-0.0305,-0.0294,-0.0296,-0.0283,-0.0279,-0.0275,-0.0265,-0.0255,-0.0249,-0.0319,-0.032,-0.032,0,0,-0.0343,-0.0336,-0.0337,-0.0325,-0.032,-0.0301,-0.0313,-0.0309,-0.0291,-0.0313,-0.03,-0.0303,-0.0301,-0.0282,-0.0279,-0.029,-0.0254,-0.0272,-0.0269,-0.0261,-0.0253,-0.0246,-0.024,-0.0318,-0.0318,-0.0319,0,0,-0.0346,-0.0348,-0.0342,-0.0329,-0.0317,-0.0305,-0.0305,-0.0294,-0.0289,-0.0277,-0.0279,-0.0272,-0.027,-0.0253,-0.0246,-0.0215,-0.0229,-0.0219,-0.0184,-0.0175,-0.0169,-0.0164,-0.0151,-0.0146,-0.0216,-0.0216,-0.0216,0,-0.0359,-0.0342,-0.0339,-0.0322,-0.0306,-0.0305,-0.0284,-0.0272,-0.0263,-0.0248,-0.027,-0.0239,-0.0249,-0.0203,-0.0194,-0.0203,-0.0202,-0.0206,-0.0168,-0.0163,-0.0159,-0.0148,-0.0142,-0.0214,-0.0214,-0.0214,-0.0214,0,-0.0345,-0.0333,-0.0326,-0.0299,-0.0282,-0.0266,-0.0241,-0.0227,-0.0226,-0.021,-0.0178,-0.0183,-0.0164,-0.0163,-0.0172,-0.0134,-0.0144,-0.0164,-0.0183,-0.0149,-0.0139,-0.0134,-0.021,-0.0211,-0.0212,-0.0212,0,0,-0.0374,-0.0326,-0.0326,-0.0299,-0.0266,-0.0247,-0.0211,-0.0169,-0.0137,-0.0134,-0.0089,-0.008,-0.0087,-0.0079,-0.0085,-0.0077,-0.0052,-0.0108,-0.0108,-0.0094,-0.0028,0.0028,0.0038,-0.0069,-0.0068,-0.0067,-0.0032,0,-0.0366,-0.0325,-0.0301,-0.0255,-0.0226,-0.0198,-0.0158,-0.0122,-0.0098,-0.0056,-0.0045,-0.0016,-0.0051,-0.0043,-0.0038,-0.0046,-0.0037,-0.0059,-0.0063,-0.0063,-0.0017,0.0047,-0.0014,0.0018,-0.0027,-0.0026,-0.0025,0,-0.0355,-0.0327,-0.0284,-0.0213,-0.0199,-0.0174,-0.0103,-0.0067,-0.0005,0.0013,0.0046,0.0053,0.0081,0.0034,0.0044,0.003,0.0006,-0.0007,-0.0006,0.0035,0.0003,-0.0024,0.003,-0.0016,-0.0017,-0.0018,-0.0018,0,-0.0364,-0.0307,-0.0271,-0.0251,-0.0181,-0.0156,-0.0119,-0.0055,-0.0009,0.0054,0.0092,0.0121,0.0142,0.0118,0.0093,0.0064,0.0104,0.0058,0.0091,0.0094,0.0039,0.0037,0.0066,0.0066,0.0066,0.0066,0.0066,0,-0.0351,-0.0322,-0.0277,-0.0259,-0.0208,-0.016,-0.0099,-0.0055,0.002,0.0094,0.0117,0.0188,0.0162,0.0184,0.0134,0.015,0.0134,0.0123,0.0119,0.0055,0.0054,0.0013,0.0007,0.0067,0.0067,0.0067,0.0066,0,-0.0357,-0.0331,-0.0288,-0.0231,-0.0213,-0.018,-0.0097,-0.0041,0.0023,0.012,0.0144,0.024,0.0285,0.0264,0.025,0.0223,0.0211,0.0213,0.0151,0.0141,0.018,0.0175,0.0259,0.0262,0.0264,0.0266,0.0267,0,-0.0351,-0.033,-0.0285,-0.0261,-0.024,-0.0187,-0.0137,-0.0059,0.0011,0.0165,0.0224,0.0313,0.0402,0.0429,0.0371,0.0328,0.0293,0.0264,0.0208,0.0219,0.0205,0.0197,0.019,0.014,0.014,0.0141,0.0141,0,-0.033,-0.0327,-0.0296,-0.0259,-0.022,-0.0153,-0.0078,-0.0023,0.0097,0.0205,0.0373,0.0459,0.0501,0.0474,0.0429,0.0385,0.0267,0.0274,0.03,0.0119,0.0115,0.0099,0.0093,0.0143,0.0143,0.0143,0.0143,0.0142,-0.0327,-0.0302,-0.0271,-0.0234,-0.0185,-0.0106,-0.0042,0.0069,0.0206,0.039,0.0464,0.0574,0.0491,0.0443,0.0403,0.0345,0.034,0.027,0.0265,0.026,0.0259,0.0261,0.0316,0.0316,0.0317,0.0318,0.0318,0,-0.0299,-0.0271,-0.0234,-0.0179,-0.012,-0.0106,0.0021,0.0119,0.0297,0.0423,0.0581,0.0516,0.0489,0.0408,0.0312,0.0286,0.0242,0.028,0.0183,0.0181,0.0178,0.0169,0.0204,0.0204,0.0205,0.0205,0,0,-0.0275,-0.0234,-0.0211,-0.0123,-0.0091,0.0007,0.0079,0.0244,0.0355,0.0514,0.055,0.0587,0.0453,0.0351,0.0286,0.0246,0.0236,0.0251,0.0334,0.0223,0.0222,0.0154,0.0137,0,0,0,0,0]}],[{"header":{"parameterUnit":"m.s-1","parameterCategory":2,"la1":30.2991,"la2":30.254,"lo1":-89.0895,"lo2":-89.0444,"dy":0.0017,"dx":0.0017,"nx":28,"ny":28,"refTime":"2024-10-13T09:00:00:Z","depth":"4","parameterNumber":2,"parameterNumberName":"U-component_of_CURRENTS"},"data":[0,0,0,0,0,0,0,0,0,0,0,0,0,0,0,0,0,0,0,0,0,0,0,0,0,0,0,0,0,0,0,0,0,0,0,0,0,0,0,0,0,0,0,0,0,0,0,0,0,0,0,0,0,0,0,0,0,0,-0.0523,-0.0523,0,-0.0536,-0.0537,-0.0537,-0.0554,-0.0555,-0.0555,-0.0555,-0.0605,-0.0606,-0.0607,0,0,0,0,0,0,0,0,0,0,0,0,0,-0.0514,-0.0515,-0.0523,-0.0523,-0.0523,-0.0536,-0.0537,-0.0537,-0.0554,-0.0555,-0.0555,-0.0555,-0.0605,-0.0606,-0.0608,0,0,0,0,0,0,0,0,0,0,0,0,0,-0.0523,-0.0515,-0.0523,-0.0533,-0.0534,-0.0536,-0.0537,-0.0537,-0.0554,-0.0555,-0.0555,-0.0555,-0.0604,-0.0606,-0.0608,-0.0613,0,0,-0.0613,-0.0614,0,0,0,0,0,0,0,0,-0.0522,-0.0523,-0.0531,-0.0532,-0.0533,-0.0543,-0.0552,-0.0564,-0.0554,-0.0548,-0.0555,-0.0555,-0.0587,-0.059,-0.0593,-0.0615,-0.0617,-0.0613,-0.0614,-0.0615,-0.0615,0,0,0,0,0,0,0,-0.0522,-0.0523,-0.0529,-0.0531,-0.0532,-0.0537,-0.0538,-0.0554,-0.0567,-0.0548,-0.0549,-0.0549,-0.0588,-0.0591,-0.0594,-0.0618,-0.0613,-0.0615,-0.0616,-0.0616,-0.0682,-0.0683,0,0,0,0,0,0,-0.0518,-0.0522,-0.0529,-0.053,-0.0527,-0.0537,-0.0539,-0.054,-0.0566,-0.057,-0.0549,-0.055,-0.0588,-0.0592,-0.0596,-0.0596,-0.0615,-0.0617,-0.0618,-0.0681,-0.0682,-0.0683,0,0,0,0,0,0,-0.0518,-0.0518,-0.0528,-0.0525,-0.0527,-0.0536,-0.0538,-0.0541,-0.0554,-0.0566,-0.057,-0.0561,-0.0588,-0.0594,-0.0621,-0.0599,-0.0617,-0.0619,-0.068,-0.0682,-0.0682,-0.0601,0,0,0,0,0,0,-0.0517,-0.0518,-0.0525,-0.0525,-0.0527,-0.0536,-0.0538,-0.0541,-0.0552,-0.0554,-0.0578,-0.0582,-0.0589,-0.0618,-0.0622,-0.0601,-0.062,-0.068,-0.0681,-0.0682,-0.0603,-0.0599,-0.0596,0,0,0,0,0,-0.0517,-0.0523,-0.0525,-0.0526,-0.0533,-0.0536,-0.0538,-0.0546,-0.0553,-0.056,-0.0578,-0.0582,-0.063,-0.062,-0.0625,-0.0604,-0.0679,-0.0681,-0.0682,-0.0604,-0.06,-0.0596,0,0,0,0,0,0,-0.0522,-0.0525,-0.0528,-0.0534,-0.0538,-0.0539,-0.0549,-0.0552,-0.0571,-0.058,-0.0591,-0.0596,-0.0611,-0.0633,-0.0622,-0.0633,-0.0655,-0.0658,-0.0595,-0.0591,-0.0587,-0.0551,-0.0622,0,0,0,0,0,-0.0525,-0.0534,-0.0532,-0.054,-0.0543,-0.0548,-0.0553,-0.0559,-0.0571,-0.058,-0.0595,-0.0615,-0.062,-0.0626,-0.0647,-0.0652,-0.068,-0.0646,-0.0643,-0.0639,-0.0617,-0.0654,-0.065,-0.0688,-0.0688,-0.0688,0,0,-0.053,-0.0533,-0.0538,-0.0543,-0.0549,-0.0553,-0.0553,-0.0565,-0.0566,-0.0583,-0.0601,-0.0609,-0.0624,-0.0625,-0.0634,-0.0638,-0.065,-0.0641,-0.0637,-0.0616,-0.0655,-0.0651,-0.0647,-0.0689,-0.0689,-0.0689,0,0,-0.0537,-0.0546,-0.0552,-0.0557,-0.0566,-0.0568,-0.0573,-0.0581,-0.0583,-0.0588,-0.0602,-0.0604,-0.0617,-0.0618,-0.0618,-0.0616,-0.0636,-0.0621,-0.0559,-0.0595,-0.0591,-0.0588,-0.0635,-0.0637,-0.0611,-0.061,-0.061,0,-0.0541,-0.0549,-0.0555,-0.0561,-0.0567,-0.0575,-0.0581,-0.0581,-0.0597,-0.0582,-0.0589,-0.0588,-0.0608,-0.0588,-0.0571,-0.0604,-0.0625,-0.0563,-0.0587,-0.0584,-0.0582,-0.0631,-0.0634,-0.0607,-0.0607,-0.0608,-0.0608,0,-0.0548,-0.0559,-0.0565,-0.0575,-0.0582,-0.0593,-0.059,-0.0585,-0.0579,-0.0566,-0.0547,-0.0562,-0.0538,-0.0554,-0.0545,-0.0532,-0.0554,-0.0581,-0.0585,-0.0573,-0.0626,-0.063,-0.0601,-0.0603,-0.0604,-0.0605,0,0,-0.0543,-0.0565,-0.0569,-0.057,-0.0593,-0.059,-0.0585,-0.0564,-0.0529,-0.0532,-0.0491,-0.0482,-0.0455,-0.0454,-0.0459,-0.0481,-0.0489,-0.0498,-0.0501,-0.0522,-0.0564,-0.0517,-0.0518,-0.0505,-0.0505,-0.0505,-0.0611,0,-0.0547,-0.0563,-0.0573,-0.0581,-0.0587,-0.0583,-0.0561,-0.0541,-0.0515,-0.0478,-0.0468,-0.0431,-0.0428,-0.039,-0.0407,-0.0477,-0.0493,-0.0457,-0.0591,-0.0595,-0.0537,-0.0519,-0.0505,-0.0614,-0.0615,-0.0616,-0.0617,0,-0.0545,-0.0558,-0.0575,-0.0562,-0.056,-0.0543,-0.0495,-0.047,-0.0416,-0.0385,-0.0337,-0.0333,-0.0327,-0.0338,-0.042,-0.0389,-0.0442,-0.051,-0.0517,-0.0496,-0.0554,-0.063,-0.0625,-0.0624,-0.0624,-0.0623,-0.0622,0,-0.0533,-0.0549,-0.0563,-0.0569,-0.0559,-0.0521,-0.0475,-0.042,-0.0383,-0.0301,-0.0286,-0.0266,-0.0279,-0.0327,-0.0444,-0.0409,-0.0585,-0.0571,-0.0589,-0.0589,-0.0636,-0.0638,-0.0621,-0.0621,-0.062,-0.062,-0.062,0,-0.0524,-0.053,-0.0541,-0.0541,-0.0497,-0.0478,-0.0394,-0.0337,-0.0275,-0.0266,-0.021,-0.0251,-0.0275,-0.0384,-0.0447,-0.0545,-0.0588,-0.0562,-0.06,-0.0605,-0.0602,-0.064,-0.0641,-0.0624,-0.0623,-0.0622,-0.0622,0,-0.05,-0.0527,-0.0539,-0.0522,-0.0489,-0.0441,-0.0333,-0.0278,-0.0217,-0.0216,-0.0192,-0.0243,-0.0336,-0.0412,-0.0548,-0.0568,-0.0665,-0.0699,-0.0724,-0.0767,-0.0633,-0.0629,-0.0658,-0.0657,-0.0656,-0.0655,-0.0654,0,-0.0491,-0.05,-0.051,-0.0497,-0.0473,-0.0385,-0.0318,-0.023,-0.0217,-0.0267,-0.031,-0.0365,-0.0407,-0.055,-0.0626,-0.0695,-0.0702,-0.0745,-0.0616,-0.0595,-0.0631,-0.0628,-0.0625,-0.0653,-0.0653,-0.0653,-0.0652,0,-0.0473,-0.0495,-0.051,-0.0477,-0.0427,-0.037,-0.0291,-0.0273,-0.025,-0.0248,-0.0346,-0.0376,-0.0491,-0.0542,-0.0595,-0.0674,-0.0695,-0.0734,-0.0733,-0.0612,-0.059,-0.0626,-0.0624,-0.0649,-0.065,-0.065,-0.065,0,-0.0465,-0.0481,-0.0503,-0.0456,-0.0422,-0.0372,-0.0313,-0.0301,-0.0265,-0.0321,-0.0407,-0.0476,-0.0531,-0.0546,-0.0654,-0.0644,-0.059,-0.0568,-0.0575,-0.0579,-0.05,-0.0458,-0.0493,0,0,0,0,0,-0.0448,-0.046,-0.045,-0.0428,-0.0399,-0.0367,-0.0328,-0.0297,-0.0323,-0.036,-0.0344,-0.0435,-0.0478,-0.0548,-0.0508,-0.0623,-0.0611,-0.0582,-0.0593,-0.0632,-0.0635,-0.0548,0,0,0,0,0,0,-0.0449,-0.0465,-0.0462,-0.0414,-0.0384,-0.0345,-0.0325,-0.0337,-0.0342,-0.0375,-0.0386,-0.0416,-0.0453,-0.0476,-0.0505,-0.0518,-0.0516,-0.0615,-0.0614,-0.063,-0.0633,-0.0636,-0.0547,0,0,0,0,0]},{"header":{"parameterUnit":"m.s-1","parameterCategory":2,"la1":30.2991,"la2":30.254,"lo1":-89.0895,"lo2":-89.0444,"dy":0.0017,"dx":0.0017,"nx":28,"ny":28,"refTime":"2024-10-13T09:00:00:Z","depth":"4","parameterNumber":3,"parameterNumberName":"V-component_of_CURRENTS"},"data":[0,0,0,0,0,0,0,0,0,0,0,0,0,0,0,0,0,0,0,0,0,0,0,0,0,0,0,0,0,0,0,0,0,0,0,0,0,0,0,0,0,0,0,0,0,0,0,0,0,0,0,0,0,0,0,0,0,0,0.0347,0.0347,0,0.0365,0.0365,0.0365,0.0379,0.0379,0.0379,0.0379,0.0403,0.0403,0.0404,0,0,0,0,0,0,0,0,0,0,0,0,0,0.033,0.033,0.0347,0.0347,0.0347,0.0365,0.0365,0.0365,0.0379,0.0379,0.0379,0.0379,0.0403,0.0403,0.0404,0,0,0,0,0,0,0,0,0,0,0,0,0,0.0341,0.033,0.0347,0.0356,0.0357,0.0365,0.0365,0.0365,0.0378,0.0379,0.0379,0.0379,0.0402,0.0403,0.0404,0.0404,0,0,0.0406,0.0406,0,0,0,0,0,0,0,0,0.034,0.0341,0.0355,0.0356,0.0357,0.037,0.0368,0.0378,0.0378,0.037,0.0379,0.0379,0.0392,0.0394,0.0396,0.0405,0.0406,0.0406,0.0407,0.0407,0.0407,0,0,0,0,0,0,0,0.0339,0.0341,0.0353,0.0355,0.0356,0.0362,0.0363,0.037,0.0379,0.0371,0.0372,0.0374,0.0393,0.0395,0.0397,0.0406,0.0406,0.0407,0.0407,0.0408,0.0459,0.046,0,0,0,0,0,0,0.0337,0.034,0.0353,0.0354,0.0349,0.0362,0.0364,0.0365,0.0379,0.0382,0.0374,0.0375,0.0394,0.0396,0.0398,0.0404,0.0407,0.0408,0.0408,0.0458,0.0459,0.046,0,0,0,0,0,0,0.0337,0.0338,0.0352,0.0348,0.035,0.0362,0.0363,0.0365,0.0379,0.0382,0.0384,0.0387,0.0394,0.0397,0.0417,0.0405,0.0408,0.0409,0.0457,0.0458,0.046,0.0413,0,0,0,0,0,0,0.0336,0.0338,0.0341,0.0348,0.035,0.0359,0.0363,0.0366,0.0379,0.0381,0.0393,0.0395,0.0395,0.0416,0.0418,0.0406,0.0409,0.0456,0.0458,0.0459,0.0413,0.0412,0.0412,0,0,0,0,0,0.0336,0.0337,0.0341,0.0343,0.0353,0.0359,0.0361,0.037,0.038,0.0384,0.04,0.0395,0.0429,0.0418,0.0419,0.0407,0.0455,0.0457,0.0459,0.0413,0.0412,0.0412,0,0,0,0,0,0,0.0332,0.0339,0.0343,0.0347,0.0355,0.0362,0.0369,0.0377,0.0392,0.0401,0.0405,0.0408,0.0422,0.0432,0.042,0.0433,0.0442,0.0444,0.0407,0.0406,0.0405,0.038,0.041,0,0,0,0,0,0.0333,0.0337,0.0343,0.0349,0.0353,0.0364,0.037,0.0378,0.0391,0.0399,0.0416,0.0432,0.043,0.0433,0.0447,0.045,0.0449,0.0449,0.0448,0.0447,0.0432,0.0408,0.0402,0.0467,0.0467,0.0467,0,0,0.0332,0.0339,0.0341,0.0349,0.0357,0.036,0.0368,0.0382,0.0394,0.0399,0.0432,0.0435,0.0436,0.0439,0.0446,0.0444,0.0437,0.0449,0.0448,0.0433,0.041,0.0403,0.0397,0.0468,0.0468,0.0468,0,0,0.0331,0.0341,0.0342,0.0347,0.0362,0.0368,0.0374,0.0396,0.0415,0.0441,0.0441,0.0434,0.0465,0.0441,0.0434,0.0441,0.0438,0.0457,0.042,0.0397,0.039,0.0384,0.04,0.0396,0.0449,0.0449,0.0449,0,0.0331,0.0335,0.0344,0.0346,0.036,0.0372,0.0383,0.0393,0.0425,0.0428,0.0455,0.0452,0.0458,0.0412,0.0413,0.0433,0.0436,0.0414,0.0391,0.0385,0.0379,0.0397,0.0393,0.0447,0.0447,0.0447,0.0447,0,0.0327,0.0333,0.0336,0.0344,0.036,0.0373,0.0391,0.0406,0.0436,0.0439,0.0436,0.0436,0.0421,0.0422,0.0416,0.0371,0.0393,0.0394,0.0381,0.0369,0.0391,0.0387,0.0444,0.0445,0.0445,0.0446,0,0,0.032,0.0331,0.0334,0.0345,0.0368,0.0381,0.0395,0.0401,0.0389,0.0417,0.0396,0.0387,0.0372,0.0363,0.0348,0.0319,0.0292,0.0334,0.0334,0.0329,0.0268,0.0254,0.0249,0.0281,0.028,0.0279,0.0307,0,0.0318,0.0323,0.034,0.0358,0.0365,0.0385,0.0392,0.0398,0.0404,0.0383,0.036,0.0346,0.0354,0.0336,0.0303,0.0285,0.0276,0.0286,0.0299,0.03,0.0269,0.0241,0.0274,0.0304,0.0303,0.0303,0.0302,0,0.031,0.0317,0.0348,0.0362,0.0369,0.0398,0.0406,0.0409,0.0364,0.0364,0.032,0.0298,0.0243,0.0267,0.0224,0.0229,0.0249,0.0248,0.0249,0.0241,0.0276,0.0316,0.0295,0.0296,0.0296,0.0297,0.0297,0,0.0304,0.0321,0.0358,0.0369,0.0388,0.0424,0.0435,0.0414,0.0402,0.0351,0.0312,0.0256,0.0223,0.0215,0.0219,0.0217,0.019,0.0192,0.0208,0.021,0.0235,0.0241,0.0182,0.0182,0.0182,0.0182,0.0182,0,0.0297,0.0313,0.0371,0.0389,0.0427,0.0445,0.0461,0.0446,0.0402,0.0331,0.0307,0.022,0.0205,0.0178,0.02,0.0189,0.0186,0.0188,0.0199,0.0223,0.0227,0.0234,0.0239,0.0183,0.0183,0.0183,0.0183,0,0.0277,0.0316,0.0352,0.0406,0.0434,0.047,0.0495,0.0459,0.0433,0.0332,0.0313,0.0204,0.0139,0.0159,0.0141,0.0161,0.0168,0.0186,0.0237,0.0253,0.0212,0.0215,0.017,0.0169,0.0169,0.0168,0.0168,0,0.0266,0.0289,0.037,0.0415,0.0463,0.051,0.0508,0.0493,0.0422,0.0289,0.0202,0.0133,0.0061,0.0041,0.0066,0.0133,0.0149,0.0191,0.0162,0.0187,0.0202,0.0206,0.021,0.0167,0.0167,0.0167,0.0167,0,0.0237,0.0287,0.0315,0.0401,0.0459,0.0451,0.0437,0.0375,0.0281,0.028,0.0093,0.0054,-0.0023,-0.0031,0.0056,0.0093,0.0167,0.0185,0.0186,0.0158,0.0183,0.02,0.0204,0.0165,0.0165,0.0165,0.0165,0,0.0219,0.0238,0.0298,0.0369,0.0424,0.0356,0.0349,0.025,0.0192,0.0047,-0.0017,-0.0078,-0.0091,-0.0054,-0.0002,0.0059,0.0051,0.0087,0.0092,0.0095,0.0062,0.0082,0.0023,0,0,0,0,0,0.0188,0.0198,0.025,0.0291,0.0328,0.0354,0.0271,0.0231,0.014,0.0009,-0.0002,-0.0074,-0.0073,-0.0089,-0.0039,-0.0025,0.0068,0.0037,0.0114,0.0154,0.0156,0.0128,0,0,0,0,0,0,0.0176,0.0207,0.022,0.0211,0.0233,0.0216,0.0165,0.0088,0.0003,-0.0053,-0.0055,-0.002,-0.0013,-0.0074,-0.0018,-0.0006,0.0054,0.0061,0.0062,0.0153,0.0155,0.0157,0.0128,0,0,0,0,0]}]]